QFA55 PABE-PAFA

Flight info

Callsign QFA55
Flight time 1h 5m
Altitude 31000
Route CABOT MCG ENN
Aircraft B738/M-SDE2E3FGHIRWXY/LB1

Departure

Time 2026-05-04 10:20
Airport Bethel Airport (PABE)

Arrival

Time 2026-05-04 11:26
Airport Fairbanks International Airport (PAFA)
Time Latitude Longitude Altitude Speed Heading
2026-05-04 09:46 60.78333 -161.83890 131 ft 0 kts 15°
2026-05-04 09:49 60.78371 -161.83793 132 ft 0 kts 289°
2026-05-04 10:16 60.78369 -161.83796 131 ft 3 kts 217°
2026-05-04 10:16 60.78325 -161.83861 131 ft 10 kts 214°
2026-05-04 10:16 60.78256 -161.83910 131 ft 12 kts 161°
2026-05-04 10:17 60.78203 -161.83775 131 ft 11 kts 113°
2026-05-04 10:17 60.78151 -161.83729 131 ft 11 kts 203°
2026-05-04 10:19 60.77253 -161.84525 131 ft 7 kts 202°
2026-05-04 10:19 60.77215 -161.84463 131 ft 9 kts 114°
2026-05-04 10:19 60.77204 -161.84346 131 ft 9 kts 59°
2026-05-04 10:19 60.77331 -161.84215 132 ft 44 kts 22°
2026-05-04 10:20 60.77822 -161.83785 132 ft 107 kts 24°
2026-05-04 10:20 60.78664 -161.83031 158 ft 152 kts 24°
2026-05-04 10:20 60.79613 -161.82079 639 ft 155 kts 25°
2026-05-04 10:20 60.80573 -161.80951 1131 ft 162 kts 28°
2026-05-04 10:21 60.81527 -161.79735 1759 ft 162 kts 29°
2026-05-04 10:21 60.82349 -161.78107 2289 ft 177 kts 56°
2026-05-04 10:21 60.82874 -161.75553 2450 ft 209 kts 67°
2026-05-04 10:21 60.83470 -161.72718 2910 ft 224 kts 59°
2026-05-04 10:22 60.85322 -161.67334 4290 ft 240 kts 52°
2026-05-04 10:22 60.86376 -161.64584 4890 ft 249 kts 51°
2026-05-04 10:22 60.87474 -161.61785 5603 ft 255 kts 51°
2026-05-04 10:23 60.88595 -161.58911 6321 ft 260 kts 52°
2026-05-04 10:23 60.89726 -161.55976 7057 ft 264 kts 52°
2026-05-04 10:25 60.98288 -161.33537 10942 ft 326 kts 52°
2026-05-04 10:25 60.99710 -161.29792 11408 ft 336 kts 53°
2026-05-04 10:25 61.01164 -161.25961 12014 ft 342 kts 53°
2026-05-04 10:25 61.02639 -161.22063 12660 ft 347 kts 53°
2026-05-04 10:26 61.04131 -161.18115 13331 ft 351 kts 53°
2026-05-04 10:26 61.05643 -161.14106 14007 ft 356 kts 53°
2026-05-04 10:26 61.07169 -161.10052 14673 ft 360 kts 53°
2026-05-04 10:26 61.08716 -161.05937 15348 ft 365 kts 53°
2026-05-04 10:27 61.10278 -161.01774 16022 ft 369 kts 53°
2026-05-04 10:27 61.11860 -160.97548 16693 ft 374 kts 53°
2026-05-04 10:27 61.13459 -160.93270 17360 ft 378 kts 53°
2026-05-04 10:27 61.15077 -160.88934 18003 ft 383 kts 53°
2026-05-04 10:28 61.16712 -160.84537 18636 ft 388 kts 54°
2026-05-04 10:28 61.18368 -160.80077 19247 ft 393 kts 54°
2026-05-04 10:28 61.20047 -160.75552 19841 ft 398 kts 54°
2026-05-04 10:28 61.21759 -160.70986 20420 ft 404 kts 54°
2026-05-04 10:29 61.23507 -160.66389 20978 ft 409 kts 53°
2026-05-04 10:29 61.25287 -160.61727 21522 ft 414 kts 54°
2026-05-04 10:29 61.27076 -160.57008 22056 ft 419 kts 54°
2026-05-04 10:29 61.28881 -160.52209 22573 ft 423 kts 54°
2026-05-04 10:30 61.30697 -160.47356 23080 ft 428 kts 54°
2026-05-04 10:30 61.32538 -160.42435 23570 ft 432 kts 54°
2026-05-04 10:30 61.34395 -160.37471 24047 ft 437 kts 54°
2026-05-04 10:30 61.36270 -160.32454 24499 ft 441 kts 54°
2026-05-04 10:31 61.37549 -160.29024 24786 ft 445 kts 55°
2026-05-04 10:31 61.39455 -160.23901 25188 ft 450 kts 55°
2026-05-04 10:32 61.51312 -159.91747 27201 ft 484 kts 57°
2026-05-04 10:33 61.53362 -159.86145 27551 ft 488 kts 57°
2026-05-04 10:33 61.55443 -159.80443 27718 ft 496 kts 57°
2026-05-04 10:33 61.57546 -159.74669 28026 ft 500 kts 57°
2026-05-04 10:33 61.59664 -159.68841 28330 ft 505 kts 57°
2026-05-04 10:34 61.61796 -159.62960 28703 ft 507 kts 57°
2026-05-04 10:34 61.63927 -159.57058 29121 ft 507 kts 58°
2026-05-04 10:34 61.66061 -159.51131 29428 ft 511 kts 58°
2026-05-04 10:34 61.68199 -159.45181 29764 ft 512 kts 58°
2026-05-04 10:35 61.70352 -159.39181 30110 ft 513 kts 58°
2026-05-04 10:35 61.72499 -159.33185 30494 ft 512 kts 58°
2026-05-04 10:35 61.74640 -159.27174 30826 ft 513 kts 58°
2026-05-04 10:35 61.76783 -159.21146 31106 ft 515 kts 58°
2026-05-04 10:36 61.81079 -159.09024 31112 ft 512 kts 59°
2026-05-04 10:36 61.85339 -158.96940 31101 ft 511 kts 58°
2026-05-04 10:37 61.89601 -158.84770 31102 ft 511 kts 59°
2026-05-04 10:37 61.93838 -158.72620 31117 ft 513 kts 58°
2026-05-04 10:39 62.06747 -158.35205 32402 ft 524 kts 58°
2026-05-04 10:39 62.08891 -158.28928 32674 ft 523 kts 58°
2026-05-04 10:39 62.11025 -158.22659 32948 ft 522 kts 58°
2026-05-04 10:40 62.13161 -158.16374 33092 ft 523 kts 58°
2026-05-04 10:40 62.17418 -158.03797 33110 ft 521 kts 58°
2026-05-04 10:41 62.21642 -157.91248 33112 ft 518 kts 58°
2026-05-04 10:41 62.25837 -157.78710 33113 ft 517 kts 59°
2026-05-04 10:42 62.30019 -157.66148 33113 ft 516 kts 58°
2026-05-04 10:42 62.34184 -157.53567 33113 ft 517 kts 59°
2026-05-04 10:43 62.38340 -157.40944 33113 ft 517 kts 59°
2026-05-04 10:45 62.54873 -156.90028 33104 ft 517 kts 59°
2026-05-04 10:45 62.58975 -156.77214 33104 ft 517 kts 59°
2026-05-04 10:46 62.63099 -156.64260 33104 ft 518 kts 59°
2026-05-04 10:46 62.67186 -156.51354 33104 ft 518 kts 59°
2026-05-04 10:47 62.71265 -156.38393 33104 ft 519 kts 59°
2026-05-04 10:47 62.75338 -156.25382 33104 ft 519 kts 59°
2026-05-04 10:49 62.91524 -155.72920 33103 ft 523 kts 60°
2026-05-04 10:50 62.95567 -155.59602 33098 ft 524 kts 60°
2026-05-04 10:52 63.10967 -155.05693 33090 ft 520 kts 62°
2026-05-04 10:52 63.14778 -154.92092 33088 ft 521 kts 62°
2026-05-04 10:54 63.30015 -154.37146 33082 ft 523 kts 63°
2026-05-04 10:56 63.45065 -153.81500 33081 ft 526 kts 63°
2026-05-04 10:57 63.48807 -153.67450 33082 ft 526 kts 63°
2026-05-04 10:57 63.52537 -153.53355 33083 ft 526 kts 63°
2026-05-04 10:58 63.56247 -153.39243 33083 ft 525 kts 63°
2026-05-04 10:58 63.59947 -153.25080 33082 ft 525 kts 63°
2026-05-04 10:59 63.63630 -153.10893 33081 ft 526 kts 63°
2026-05-04 10:59 63.67309 -152.96627 33080 ft 527 kts 63°
2026-05-04 11:00 63.70970 -152.82346 33080 ft 526 kts 63°
2026-05-04 11:02 63.85491 -152.24756 33078 ft 526 kts 63°
2026-05-04 11:02 63.87286 -152.17532 32938 ft 526 kts 63°
2026-05-04 11:05 64.10492 -151.21952 25333 ft 483 kts 64°
2026-05-04 11:06 64.12085 -151.15220 24810 ft 479 kts 64°
2026-05-04 11:06 64.13664 -151.08523 24289 ft 475 kts 64°
2026-05-04 11:06 64.15227 -151.01889 23774 ft 472 kts 64°
2026-05-04 11:06 64.16776 -150.95298 23261 ft 468 kts 64°
2026-05-04 11:08 64.27155 -150.50598 19803 ft 437 kts 64°
2026-05-04 11:10 64.36658 -150.08837 16598 ft 401 kts 64°
2026-05-04 11:12 64.45134 -149.70884 13623 ft 354 kts 64°
2026-05-04 11:12 64.46244 -149.65864 13241 ft 346 kts 64°
2026-05-04 11:12 64.47341 -149.60892 12864 ft 337 kts 64°
2026-05-04 11:12 64.48380 -149.56173 12500 ft 329 kts 64°
2026-05-04 11:13 64.49430 -149.51389 12145 ft 328 kts 64°
2026-05-04 11:13 64.50467 -149.46648 11786 ft 331 kts 64°
2026-05-04 11:13 64.51506 -149.41893 11434 ft 330 kts 64°
2026-05-04 11:13 64.52540 -149.37154 11054 ft 326 kts 64°
2026-05-04 11:14 64.53550 -149.32522 10703 ft 317 kts 65°
2026-05-04 11:14 64.54538 -149.27983 10439 ft 313 kts 65°
2026-05-04 11:14 64.55498 -149.23556 10331 ft 298 kts 64°
2026-05-04 11:16 64.60595 -148.94798 8618 ft 264 kts 75°
2026-05-04 11:16 64.61108 -148.90704 8302 ft 262 kts 75°
2026-05-04 11:16 64.61617 -148.86638 7989 ft 261 kts 75°
2026-05-04 11:17 64.62125 -148.82589 7679 ft 260 kts 75°
2026-05-04 11:17 64.62630 -148.78565 7370 ft 258 kts 75°
2026-05-04 11:19 64.66056 -148.50932 6040 ft 254 kts 75°
2026-05-04 11:19 64.66265 -148.46900 5931 ft 251 kts 98°
2026-05-04 11:19 64.65923 -148.42911 5675 ft 248 kts 104°
2026-05-04 11:19 64.65507 -148.39070 5420 ft 241 kts 105°
2026-05-04 11:20 64.65084 -148.35291 5176 ft 234 kts 105°
2026-05-04 11:20 64.64682 -148.31679 4946 ft 227 kts 105°
2026-05-04 11:20 64.64296 -148.28176 4730 ft 220 kts 105°
2026-05-04 11:20 64.63923 -148.24775 4518 ft 215 kts 104°
2026-05-04 11:22 64.69776 -148.07747 3010 ft 174 kts 38°
2026-05-04 11:22 64.70725 -148.06022 2792 ft 172 kts 38°
2026-05-04 11:23 64.71670 -148.04300 2587 ft 172 kts 38°
2026-05-04 11:23 64.72613 -148.02584 2376 ft 171 kts 38°
2026-05-04 11:24 64.77781 -147.93134 1151 ft 150 kts 37°
2026-05-04 11:25 64.78610 -147.91634 890 ft 151 kts 38°
2026-05-04 11:25 64.79423 -147.90126 661 ft 147 kts 37°
2026-05-04 11:25 64.80216 -147.88675 499 ft 142 kts 37°
2026-05-04 11:26 64.81350 -147.86594 443 ft 44 kts 38°
2026-05-04 11:27 64.81504 -147.86765 443 ft 7 kts 305°
2026-05-04 11:28 64.81539 -147.86863 443 ft 9 kts 319°
2026-05-04 11:28 64.81590 -147.86882 443 ft 8 kts 11°
2026-05-04 11:28 64.81643 -147.86851 443 ft 4 kts 14°
2026-05-04 11:28 64.81645 -147.86850 443 ft 0 kts 14°